Theta_e
293 293 293 293 293 293 293 293 293 293 293 293 293 294 293 294 294 294 293 293 293 293 293 293 292 292 293 292 291 291 290 290 290 289 289 289 289 288 289 288 287 288
292 292 292 292 292 292 293 293 293 293 293 293 293 293 294 294 294 294 294 293 292 292 292 292 291 291 291 290 289 289 289 288 288 290 288 287 287 287 288 288 288 288
291 291 291 291 291 291 291 292 292 292 292 292 292 292 293 294 293 293 293 293 292 292 291 291 291 290 290 288 287 288 288 287 287 287 287 287 287 286 287 287 287 287
289 290 290 290 290 290 290 290 290 290 290 290 290 291 292 292 292 291 291 291 291 290 289 287 288 288 287 288 287 288 287 287 287 287 287 287 286 286 287 286 286 287
288 288 289 289 289 290 289 288 288 289 288 289 289 289 289 289 289 289 289 288 288 288 288 288 287 288 288 288 287 288 287 287 286 286 286 286 286 286 287 286 286 286
286 287 287 287 287 288 288 287 288 288 288 288 288 287 286 286 285 286 287 287 288 288 288 287 287 287 287 287 288 288 287 287 287 286 286 286 286 286 287 286 286 286
287 287 286 286 285 286 287 286 287 287 287 287 287 287 287 287 286 286 285 286 286 286 287 287 288 288 287 287 287 287 287 287 286 286 286 286 286 286 286 286 286 286
283 283 285 284 284 283 283 283 283 285 285 284 284 286 286 286 286 287 287 287 286 285 285 286 287 287 288 288 287 286 286 287 287 286 286 286 285 285 286 286 286 285
282 281 281 281 282 282 283 283 284 284 285 283 284 284 284 285 285 285 285 286 286 286 286 286 285 286 287 287 287 287 287 287 286 286 286 286 285 285 285 285 285 285
281 281 282 281 280 280 281 281 281 282 283 283 283 283 284 284 284 285 285 285 285 285 285 285 286 286 285 285 286 287 287 287 287 286 286 286 286 286 285 285 285 285
281 281 281 281 280 280 280 280 280 280 281 281 282 282 282 283 283 283 284 284 284 284 285 285 285 285 285 285 286 286 286 286 286 287 287 286 286 286 286 285 285 285
283 282 282 281 281 280 280 280 281 280 280 281 280 281 281 281 282 282 283 283 283 284 284 285 285 285 285 285 285 285 286 286 286 286 286 286 286 286 286 286 286 286
282 283 283 283 282 282 282 282 282 282 282 281 281 281 281 281 281 281 282 282 282 283 283 284 284 285 285 285 285 285 285 285 285 285 286 286 286 286 286 286 286 286
282 281 282 282 282 282 282 282 282 282 282 282 282 282 282 281 281 281 281 281 281 282 282 283 283 284 284 284 285 285 285 284 284 284 285 285 285 285 285 285 286 286
281 281 282 281 281 281 281 282 282 282 282 282 282 282 282 282 282 281 281 281 281 281 281 282 283 283 284 284 284 284 284 284 284 284 284 284 284 285 285 285 285 285
282 282 282 282 282 282 282 282 282 281 281 281 281 281 281 282 281 281 281 281 281 281 281 282 282 283 285 287 288 286 284 284 284 284 284 284 284 284 284 284 284 284
282 282 282 282 282 282 282 282 282 282 282 282 281 281 281 281 281 281 281 281 281 281 281 282 282 283 286 288 289 290 288 285 284 284 284 284 283 283 283 284 284 284
281 281 281 281 282 282 282 282 282 281 281 281 281 281 281 281 280 280 281 281 281 281 281 281 282 284 287 288 288 289 289 286 284 284 284 283 283 283 283 283 283 284
280 280 280 280 280 280 281 281 281 281 281 281 280 281 281 280 280 280 280 280 280 280 280 281 281 285 286 287 288 288 289 288 285 284 284 283 283 283 283 283 283 283
278 278 278 278 278 278 278 279 279 279 279 280 280 280 280 280 280 280 280 280 280 280 280 280 281 284 286 287 288 288 288 288 284 284 283 283 283 283 283 283 283 283
275 275 275 275 275 274 274 274 275 275 276 277 277 277 277 277 277 277 278 279 279 280 280 280 281 284 285 286 287 287 288 288 284 283 283 282 283 283 283 283 283 284
273 272 272 272 272 272 272 273 273 273 273 274 274 274 275 275 275 276 276 276 277 278 278 279 280 284 285 285 286 286 287 285 284 283 282 282 282 283 283 283 283 283
271 270 270 270 270 270 270 270 270 269 269 270 269 269 270 271 271 272 274 274 275 276 277 277 279 282 283 284 285 286 285 283 283 282 282 281 281 282 282 283 283 283
268 267 266 266 267 266 266 266 265 265 266 267 266 266 267 268 270 271 272 274 274 274 276 276 277 280 283 284 284 285 284 282 282 281 280 281 281 281 282 282 283 284
265 265 265 264 264 264 264 263 263 264 265 265 265 266 266 267 268 268 268 269 271 272 274 274 275 278 282 283 284 284 283 281 281 280 280 280 280 280 281 281 282 283
264 263 263 263 262 263 263 263 263 263 263 263 263 264 264 265 265 265 265 266 267 269 270 272 272 274 276 280 282 283 284 282 281 280 279 279 279 279 279 280 280 281
Wind_Speed
9 8 8 9 8 8 8 7 7 6 6 6 6 6 6 6 6 5 3 4 4 5 5 5 5 5 6 5 5 6 5 6 7 6 7 8 8 9 12 12 9 10
10 9 8 7 7 8 8 8 8 8 8 8 8 7 7 7 7 5 6 4 4 4 4 5 5 5 5 5 5 6 6 6 7 5 7 7 8 8 11 11 12 11
11 11 10 10 9 9 9 8 7 7 8 8 8 8 8 7 8 7 7 6 5 5 4 5 5 5 5 5 5 6 6 6 7 6 7 7 7 8 8 8 10 12
10 9 9 8 8 7 7 7 7 6 7 7 7 8 7 7 7 8 7 8 7 6 6 5 5 5 5 5 5 6 6 7 7 6 7 7 7 7 8 7 9 10
7 8 8 8 8 7 7 8 8 6 5 4 5 7 7 7 7 7 7 7 5 6 6 6 5 5 5 5 5 6 6 7 6 6 7 8 7 7 8 7 10 11
4 3 4 5 7 7 8 8 8 9 10 9 8 4 3 3 4 5 5 6 7 8 7 6 5 5 5 6 6 6 7 7 7 6 7 8 8 7 7 8 10 12
4 3 3 4 5 6 5 6 6 7 6 6 8 10 10 10 8 6 5 5 6 6 6 7 7 7 5 5 5 6 7 7 7 7 8 8 7 9 8 8 10 12
4 4 3 4 4 4 4 4 4 4 4 4 6 7 6 7 9 10 11 10 6 5 5 5 5 6 7 6 7 6 7 6 6 7 8 9 7 10 9 9 10 12
4 4 3 4 4 4 3 4 4 4 4 4 5 5 5 5 6 6 6 7 9 11 10 7 5 5 5 5 7 8 9 8 7 7 8 9 9 11 10 9 11 12
3 3 1 3 3 4 3 4 4 4 4 3 4 4 5 5 5 7 6 6 6 6 6 7 9 8 7 5 6 7 8 9 8 8 9 9 10 10 10 10 12 12
2 1 1 2 2 3 4 4 4 4 4 4 4 5 4 5 6 5 6 6 8 9 9 9 8 8 8 8 7 6 7 8 8 8 9 10 11 11 11 11 12 13
6 5 5 5 5 5 5 4 4 5 5 5 5 6 6 4 5 5 5 7 7 7 7 9 9 9 9 8 8 8 8 8 9 9 9 10 10 10 10 10 12 13
9 9 8 8 8 8 8 7 8 8 7 8 6 6 8 8 7 7 7 6 7 7 7 8 9 8 9 9 9 9 9 9 9 10 10 10 10 11 10 11 12 12
7 6 7 7 7 7 8 8 9 9 10 9 8 10 11 10 10 9 9 8 8 8 9 8 8 8 8 8 9 9 10 9 9 9 10 10 10 11 11 11 12 12
7 7 6 7 8 7 8 9 8 8 8 8 8 9 9 10 10 10 12 12 11 10 10 8 8 9 8 8 9 10 9 10 11 11 10 10 11 11 11 11 11 11
9 8 9 9 10 11 11 11 10 10 9 9 9 9 9 9 10 10 11 12 13 12 11 10 10 8 11 17 15 10 9 9 9 10 10 11 11 12 11 11 11 11
10 10 11 12 12 11 10 10 11 11 11 12 11 10 11 10 10 11 11 11 12 12 13 12 11 11 17 16 17 21 15 10 10 10 10 10 10 11 13 13 11 11
10 11 12 13 12 12 13 13 13 13 13 12 12 13 12 10 12 12 12 12 12 12 13 13 13 15 20 19 21 22 19 13 11 10 10 10 10 11 11 11 12 11
10 10 11 11 11 11 12 13 14 15 15 14 15 13 12 13 14 14 14 13 13 14 15 15 15 14 21 23 23 25 24 20 11 11 12 11 11 12 12 12 11 11
11 10 11 10 11 12 12 13 13 14 14 14 14 14 14 14 14 15 14 15 15 15 15 16 16 15 23 24 23 25 25 22 14 14 13 13 13 13 12 12 12 12
11 10 11 11 12 13 14 15 16 16 16 15 13 13 14 15 15 14 16 13 16 15 16 17 17 22 25 26 26 27 27 24 16 14 14 14 14 14 14 13 13 13
10 11 12 12 13 13 13 14 13 13 14 13 11 12 11 15 13 17 17 17 18 17 19 18 18 24 28 28 29 28 29 18 15 15 15 14 15 14 14 13 13 13
10 11 12 12 12 14 14 12 13 13 14 11 15 15 15 16 15 19 16 19 18 18 17 19 19 23 30 32 31 33 26 17 15 13 13 14 16 15 15 14 13 13
10 11 13 14 14 13 12 13 12 12 13 12 14 14 18 15 16 13 16 16 18 21 18 20 20 25 34 34 34 34 29 19 15 15 15 15 15 15 14 13 15 21
10 11 11 12 13 13 11 14 11 14 11 13 11 13 16 13 19 13 18 15 19 18 29 28 22 24 32 34 36 34 28 18 17 15 16 15 14 14 14 13 14 16
9 11 12 12 13 13 12 12 11 11 11 13 11 13 12 14 13 15 18 18 17 17 17 18 22 22 26 36 35 35 34 23 15 15 15 15 14 14 14 13 14 14
Wind_Direction
17 16 11 13 15 15 10 7 1 358 348 346 347 336 338 327 336 340 274 233 227 232 244 246 247 250 246 242 243 245 244 246 249 243 239 233 236 234 240 244 244 241
13 12 11 12 17 16 13 12 4 3 355 354 348 341 338 341 335 341 329 293 266 253 253 255 254 249 250 246 244 242 247 250 253 250 250 244 240 234 240 240 244 248
8 10 11 12 9 11 12 12 14 8 2 352 348 348 341 342 337 338 335 321 300 283 272 261 261 258 253 251 245 240 238 242 248 249 249 250 246 241 243 238 243 243
7 4 1 1 2 9 11 12 12 9 359 2 354 344 342 336 338 334 329 323 313 300 287 280 269 267 264 259 255 252 243 240 237 236 247 254 250 247 248 241 244 245
0 356 355 352 349 359 8 8 10 7 6 353 340 339 338 336 334 331 327 319 310 297 292 284 276 271 266 265 255 257 254 252 250 241 242 246 244 242 249 241 246 248
340 338 345 347 350 354 3 3 356 352 349 351 349 328 312 314 314 319 319 322 321 318 310 299 287 277 270 260 260 254 254 255 253 244 249 247 250 243 246 241 247 250
319 322 342 345 359 348 0 350 348 343 339 330 334 339 342 344 344 337 325 315 311 307 305 308 309 301 282 266 259 258 254 247 252 246 249 253 248 252 247 245 246 248
305 312 324 336 357 337 338 335 321 323 313 329 333 319 330 331 334 334 334 331 321 302 296 295 294 293 293 290 276 266 260 249 251 245 249 253 245 250 247 245 247 249
307 312 328 335 345 322 324 320 312 310 307 322 317 315 318 321 316 313 309 315 322 325 325 319 301 288 279 274 273 269 269 266 253 247 247 251 248 248 248 244 249 248
281 277 310 322 343 309 314 303 303 301 293 302 296 298 304 300 312 311 311 311 311 304 303 306 312 309 299 279 266 262 260 261 261 258 256 253 251 251 249 245 246 251
292 273 281 288 293 288 292 293 296 295 293 292 298 298 292 301 303 302 302 308 308 311 311 310 305 301 298 294 283 270 263 263 261 258 257 256 253 252 249 245 248 249
340 340 337 332 323 313 303 292 289 295 297 295 296 300 296 289 287 291 289 291 291 288 291 295 298 299 296 291 288 285 280 272 269 265 263 261 259 255 250 245 248 250
334 333 330 330 328 323 320 319 316 315 313 307 300 298 303 304 298 296 289 279 278 280 280 280 279 280 286 290 290 285 278 277 275 272 269 268 264 261 258 254 251 251
312 311 315 311 310 311 310 309 309 308 306 303 307 307 305 301 298 297 294 291 284 281 276 272 271 271 268 268 273 280 282 279 272 269 270 268 268 264 260 258 257 255
316 316 311 309 306 307 305 301 294 287 285 287 287 288 287 288 290 293 295 293 288 279 276 270 267 265 261 259 263 264 264 270 276 276 272 271 268 266 261 258 257 256
314 313 310 307 308 306 305 303 301 299 295 291 286 278 275 275 277 277 277 279 284 284 278 275 271 268 261 258 256 256 256 256 259 265 268 271 273 273 268 260 255 255
313 309 310 308 305 304 301 300 300 299 296 293 291 288 284 283 279 278 275 274 274 276 278 276 273 269 264 258 258 261 261 257 253 256 257 258 261 264 269 269 265 258
312 310 309 307 308 309 310 309 307 302 297 294 294 293 290 286 282 279 279 280 279 277 274 271 269 265 262 259 259 260 258 255 253 254 253 253 252 256 259 261 263 261
310 307 305 305 308 310 310 309 306 303 302 302 298 296 296 293 290 287 285 282 279 278 277 275 273 262 261 259 258 260 257 254 250 248 251 251 251 250 253 257 258 257
313 312 308 310 314 317 316 313 312 309 308 307 305 305 301 297 293 289 288 286 285 282 280 278 274 269 266 262 258 259 259 258 255 250 248 248 248 248 248 250 250 253
311 313 315 317 317 315 310 304 300 300 301 301 304 304 304 300 299 297 291 286 284 280 280 277 276 273 270 268 266 262 259 256 256 254 253 251 247 245 244 243 245 248
322 319 314 311 309 305 300 298 300 301 303 307 307 304 299 298 294 292 290 289 285 281 279 275 272 268 269 268 268 268 268 263 258 255 253 251 249 249 245 242 242 242
318 315 313 313 312 308 307 310 313 315 314 316 307 301 296 292 289 289 288 285 284 281 278 276 275 271 269 268 268 269 268 265 262 258 255 254 253 251 248 244 241 238
326 327 321 315 311 309 311 309 308 305 302 304 299 298 293 288 288 285 284 285 284 282 277 278 276 273 272 271 270 269 267 266 264 263 259 257 255 251 249 249 244 240
320 316 310 307 304 302 303 301 299 298 297 298 293 293 292 295 295 293 292 287 285 285 288 285 284 282 278 275 274 272 270 267 266 262 260 255 255 256 254 252 252 248
311 308 303 301 298 297 294 291 295 296 292 292 290 288 290 293 297 296 294 290 289 286 282 281 284 284 284 283 281 278 275 272 265 262 258 258 256 259 262 258 251 249